Location: Chomutov
(50.4500°N, 13.4333°E)
Time: 23:39:33
(UTC+02:00)

Tianhe-1 - Visible Passes

Search period start: 20 June 2021 00:00
Search period end: 30 June 2021 00:00
Orbit: 375 x 386 km, 41.5° (Epoch: 20 June)

Date Brightness Start Highest point End Pass type
(mag) Time Alt. Az. Time Alt. Az. Time Alt. Az.
24 Jun 3.1 04:00:41 10° SSW 04:02:29 14° S 04:04:18 10° SE visible
25 Jun 3.3 03:02:05 12° SSE 03:02:05 12° SSE 03:03:00 10° SE visible
26 Jun 2.9 03:35:54 14° SSW 03:37:00 16° S 03:39:01 10° SE visible
27 Jun 3.5 02:37:39 11° SE 02:37:39 11° SE 02:38:00 10° SE visible
27 Jun 2.9 04:10:19 10° SW 04:12:17 15° S 04:14:15 10° SSE visible
28 Jun 2.8 03:11:40 16° S 03:11:40 16° S 03:13:34 10° SE visible
29 Jun 3.0 03:45:55 13° SSW 03:46:46 14° SSW 03:48:27 10° SSE visible
